Meteo pe oră la Almoradi

Astăzi, 26 Ianuarie, Marţi

Timp Temperatura Precipitaţii Vânt Presiune Umiditate
00:00 +14°C° 0 mm 4 m/s 760 mmHg 76%
01:00 +14°C° 0 mm 4 m/s 760 mmHg 78%
02:00 +13°C° 0 mm 3 m/s 761 mmHg 80%
03:00 +14°C° 0 mm 2 m/s 761 mmHg 83%
04:00 +13°C° 0 mm 2 m/s 762 mmHg 83%
05:00 +12°C° 0 mm 3 m/s 762 mmHg 83%
06:00 +12°C° 0 mm 3 m/s 763 mmHg 84%
07:00 +14°C° 0 mm 2 m/s 763 mmHg 82%
08:00 +14°C° 0 mm 2 m/s 764 mmHg 81%
09:00 +15°C° 0 mm 1 m/s 764 mmHg 79%
10:00 +16°C° 0 mm 2 m/s 764 mmHg 74%
11:00 +18°C° 0 mm 3 m/s 764 mmHg 68%
12:00 +19°C° 0 mm 3 m/s 765 mmHg 63%
13:00 +20°C° 0 mm 3 m/s 764 mmHg 61%
14:00 +20°C° 0 mm 3 m/s 763 mmHg 59%
15:00 +21°C° 0 mm 4 m/s 763 mmHg 56%
16:00 +20°C° 0 mm 4 m/s 763 mmHg 62%
17:00 +18°C° 0 mm 4 m/s 763 mmHg 67%
18:00 +17°C° 0 mm 3 m/s 763 mmHg 72%
19:00 +17°C° 0 mm 3 m/s 764 mmHg 74%
20:00 +17°C° 0 mm 3 m/s 764 mmHg 75%
21:00 +16°C° 0 mm 3 m/s 764 mmHg 77%
22:00 +16°C° 0 mm 3 m/s 764 mmHg 76%
23:00 +16°C° 0 mm 3 m/s 764 mmHg 76%

Mâine, 27 Ianuarie, Miercuri

Timp Temperatura Precipitaţii Vânt Presiune Umiditate
00:00 +17°C° 0 mm 4 m/s 764 mmHg 76%
01:00 +15°C° 0 mm 4 m/s 764 mmHg 77%
02:00 +15°C° 0 mm 4 m/s 764 mmHg 79%
03:00 +15°C° 0 mm 4 m/s 764 mmHg 80%
04:00 +15°C° 0 mm 4 m/s 764 mmHg 80%
05:00 +15°C° 0 mm 4 m/s 764 mmHg 80%
06:00 +15°C° 0 mm 4 m/s 764 mmHg 80%
07:00 +15°C° 0 mm 4 m/s 764 mmHg 77%
08:00 +17°C° 0 mm 4 m/s 764 mmHg 74%
09:00 +18°C° 0 mm 4 m/s 765 mmHg 71%
10:00 +20°C° 0 mm 4 m/s 765 mmHg 65%
11:00 +21°C° 0 mm 5 m/s 765 mmHg 59%
12:00 +23°C° 0 mm 6 m/s 765 mmHg 54%
13:00 +23°C° 0 mm 6 m/s 765 mmHg 53%
14:00 +23°C° 0 mm 6 m/s 764 mmHg 52%
15:00 +23°C° 0 mm 6 m/s 764 mmHg 51%
16:00 +22°C° 0 mm 5 m/s 764 mmHg 56%
17:00 +20°C° 0 mm 5 m/s 764 mmHg 60%
18:00 +19°C° 0 mm 4 m/s 765 mmHg 65%
19:00 +18°C° 0 mm 4 m/s 765 mmHg 67%
20:00 +18°C° 0 mm 4 m/s 765 mmHg 69%
21:00 +17°C° 0 mm 4 m/s 765 mmHg 72%
22:00 +17°C° 0 mm 4 m/s 765 mmHg 73%
23:00 +17°C° 0 mm 4 m/s 766 mmHg 74%

Poimâine, 28 Ianuarie, Joi

Timp Temperatura Precipitaţii Vânt Presiune Umiditate
00:00 +15°C° 0 mm 4 m/s 766 mmHg 75%
01:00 +15°C° 0 mm 4 m/s 765 mmHg 76%
02:00 +15°C° 0 mm 4 m/s 765 mmHg 77%
03:00 +14°C° 0 mm 4 m/s 765 mmHg 78%
04:00 +14°C° 0 mm 3 m/s 765 mmHg 79%
05:00 +14°C° 0 mm 3 m/s 765 mmHg 79%
06:00 +13°C° 0 mm 3 m/s 765 mmHg 80%
07:00 +15°C° 0 mm 2 m/s 765 mmHg 75%
08:00 +16°C° 0 mm 2 m/s 765 mmHg 71%
09:00 +18°C° 0 mm 2 m/s 765 mmHg 66%
10:00 +19°C° 0 mm 2 m/s 765 mmHg 59%
11:00 +21°C° 0 mm 3 m/s 765 mmHg 52%
12:00 +24°C° 0 mm 3 m/s 765 mmHg 46%
13:00 +25°C° 0 mm 3 m/s 765 mmHg 43%
14:00 +25°C° 0 mm 3 m/s 764 mmHg 40%
15:00 +26°C° 0 mm 3 m/s 764 mmHg 37%
16:00 +24°C° 0 mm 3 m/s 764 mmHg 44%
17:00 +21°C° 0 mm 3 m/s 764 mmHg 50%
18:00 +19°C° 0 mm 3 m/s 764 mmHg 56%
19:00 +18°C° 0 mm 3 m/s 764 mmHg 59%
20:00 +18°C° 0 mm 3 m/s 764 mmHg 61%
21:00 +17°C° 0 mm 3 m/s 764 mmHg 63%
22:00 +17°C° 0 mm 2 m/s 764 mmHg 66%
23:00 +17°C° 0 mm 2 m/s 764 mmHg 69%

29 Ianuarie, Vineri

Timp Temperatura Precipitaţii Vânt Presiune Umiditate
00:00 +16°C° 0 mm 2 m/s 764 mmHg 71%
01:00 +16°C° 0 mm 2 m/s 764 mmHg 72%
02:00 +16°C° 0 mm 2 m/s 763 mmHg 73%
03:00 +16°C° 0 mm 2 m/s 763 mmHg 73%
04:00 +16°C° 0 mm 2 m/s 763 mmHg 73%
05:00 +15°C° 0 mm 2 m/s 763 mmHg 72%
06:00 +15°C° 0 mm 2 m/s 762 mmHg 71%
07:00 +17°C° 0 mm 2 m/s 762 mmHg 66%
08:00 +18°C° 0 mm 2 m/s 763 mmHg 60%
09:00 +20°C° 0 mm 2 m/s 763 mmHg 55%
10:00 +23°C° 0 mm 2 m/s 762 mmHg 48%
11:00 +24°C° 0 mm 2 m/s 762 mmHg 42%
12:00 +26°C° 0 mm 2 m/s 762 mmHg 36%
13:00 +27°C° 0 mm 3 m/s 761 mmHg 34%
14:00 +27°C° 0 mm 3 m/s 761 mmHg 32%
15:00 +28°C° 0 mm 3 m/s 760 mmHg 31%
16:00 +25°C° 0 mm 3 m/s 760 mmHg 38%
17:00 +22°C° 0 mm 3 m/s 760 mmHg 45%
18:00 +19°C° 0 mm 3 m/s 760 mmHg 53%
19:00 +19°C° 0 mm 3 m/s 760 mmHg 53%
20:00 +18°C° 0 mm 2 m/s 760 mmHg 53%
21:00 +18°C° 0 mm 2 m/s 760 mmHg 54%
22:00 +18°C° 0 mm 2 m/s 760 mmHg 54%
23:00 +17°C° 0 mm 2 m/s 759 mmHg 55%

30 Ianuarie, Sâmbătă

Timp Temperatura Precipitaţii Vânt Presiune Umiditate
00:00 +17°C° 0 mm 2 m/s 759 mmHg 56%
01:00 +17°C° 0 mm 2 m/s 759 mmHg 57%
02:00 +17°C° 0 mm 2 m/s 758 mmHg 59%
03:00 +17°C° 0 mm 3 m/s 758 mmHg 60%
04:00 +16°C° 0 mm 3 m/s 757 mmHg 62%
05:00 +16°C° 0 mm 3 m/s 757 mmHg 65%
06:00 +16°C° 0 mm 3 m/s 756 mmHg 68%
07:00 +17°C° 0 mm 3 m/s 756 mmHg 64%
08:00 +18°C° 0 mm 3 m/s 756 mmHg 61%
09:00 +18°C° 0 mm 4 m/s 756 mmHg 58%
10:00 +19°C° 0 mm 6 m/s 756 mmHg 53%
11:00 +19°C° 0 mm 9 m/s 756 mmHg 48%
12:00 +21°C° 0 mm 12 m/s 756 mmHg 43%
13:00 +21°C° 0 mm 12 m/s 756 mmHg 43%
14:00 +21°C° 0 mm 12 m/s 756 mmHg 42%
15:00 +21°C° 0 mm 12 m/s 756 mmHg 41%
16:00 +18°C° 0 mm 11 m/s 757 mmHg 45%
17:00 +17°C° 0 mm 10 m/s 757 mmHg 48%
18:00 +16°C° 0 mm 9 m/s 758 mmHg 51%
19:00 +16°C° 0 mm 8 m/s 758 mmHg 53%
20:00 +15°C° 0 mm 8 m/s 759 mmHg 55%
21:00 +15°C° 0 mm 7 m/s 760 mmHg 58%
22:00 +14°C° 0 mm 7 m/s 760 mmHg 60%
23:00 +14°C° 0 mm 7 m/s 760 mmHg 62%

31 Ianuarie, Duminică

Timp Temperatura Precipitaţii Vânt Presiune Umiditate
00:00 +13°C° 0 mm 6 m/s 761 mmHg 64%
01:00 +13°C° 0 mm 6 m/s 761 mmHg 65%
02:00 +11°C° 0 mm 6 m/s 761 mmHg 65%
03:00 +11°C° 0 mm 6 m/s 761 mmHg 66%
04:00 +12°C° 0 mm 5 m/s 761 mmHg 67%
05:00 +10°C° 0 mm 5 m/s 761 mmHg 68%
06:00 +11°C° 0 mm 4 m/s 761 mmHg 69%
07:00 +12°C° 0 mm 4 m/s 761 mmHg 65%
08:00 +13°C° 0 mm 4 m/s 761 mmHg 61%
09:00 +14°C° 0 mm 4 m/s 762 mmHg 57%
10:00 +16°C° 0 mm 5 m/s 761 mmHg 52%
11:00 +17°C° 0 mm 5 m/s 761 mmHg 46%
12:00 +20°C° 0 mm 5 m/s 761 mmHg 40%
13:00 +21°C° 0 mm 5 m/s 760 mmHg 39%
14:00 +22°C° 0 mm 6 m/s 760 mmHg 38%
15:00 +23°C° 0 mm 6 m/s 759 mmHg 36%
16:00 +21°C° 0 mm 5 m/s 759 mmHg 44%
17:00 +19°C° 0 mm 5 m/s 760 mmHg 51%
18:00 +17°C° 0 mm 4 m/s 760 mmHg 58%
19:00 +17°C° 0 mm 4 m/s 760 mmHg 60%
20:00 +15°C° 0 mm 4 m/s 761 mmHg 62%
21:00 +15°C° 0 mm 4 m/s 761 mmHg 64%
22:00 +14°C° 0 mm 4 m/s 761 mmHg 67%
23:00 +14°C° 0 mm 4 m/s 761 mmHg 69%
Arată mai mult

Formular de consimțământ

Meteoprog și furnizorii noștri de servicii pot stoca și accesa date personale, precum cookies, identificatori de dispozitiv sau alte tehnologii similare pe dispozitivul dumneavoastră și procesa astfel de date pentru a personaliza conținutul și reclamele, dar și pentru a oferi caracteristici de social media și pentru a analiza traficul.

  • Stocarea și/sau accesarea informațiilor pe dispozitivul dumneavoastră

    Cookies, identificatori de dispozitiv sau alte informații pot fi stocate sau accesate pe dispozitiv în scopurile indicate mai sus.

  • Reclame și conținut personalizat, evaluarea reclamelor și a conținutului, informații despre audiențe și dezvoltarea produselor

    Reclamele și conținutul pot fi personalizate pe baza unui profil. Pot fi adăugate date suplimentare pentru a personaliza mai bine reclamele și conținutul. Performanța reclamelor și conținutului poate fi măsurată. Pot fi obținute informații despre utilizatorii care au văzut reclamele și conținutul. Aceste date pot fi utilizate pentru a dezvolta sau îmbunătăți experiența utilizatorilor, sistemele și software-ul.

Dând clic pe ‘Sunt de acord’, permiteți utilizarea cookie-urilor menționate, a identificatorilor de dispozitiv, balizelor web sau altor tehnologii similare. Setările pot fi modificate din browser-ul dispozitivului dumneavoastră.

În anumite scopuri, interesele legitime pot prima asupra consimțământului. Puteți citi mai multe informații în acest sens în Politica privind Confidențialitatea Datelor și Cookie.